User: anonymous   Login
Location: Unspecified
(0.0000°N, 0.0000°E)
Time: 10:41:16
(UTC+01:00)
Language:

Ariane H10 - Orbit

View from above orbital plane
View from above orbital plane
View from above satellite
View from above satellite

Ground track
Ground track

The orbit data is extracted from the following two-line orbital elements,

1 19622U 88098B   14353.19066623  .00003142  00000-0  12007-2 0  9501
2 19622 003.9486 057.8013 6448143 110.1212 341.2177 03.36123753273183
Epoch (UTC): 19 December 2014 04:34:33
Eccentricity: 0.6448143
inclination: 3.9486°
perigee height: 308 km
apogee height: 24585 km
right ascension of ascending node: 57.8013°
argument of perigee: 110.1212°
revolutions per day: 3.36123753
mean anomaly at epoch: 341.2177°
orbit number at epoch: 27318

The dashed part of the orbit path shows where the satellite is in the earth's shadow,  

DLR